Weather History for Versailles, OH

Change the Weather History Date:

Friday, October 11, 2013

  Actual Average (KDAY) Record (KDAY)
Temperature  
Mean Temperature 60 °F 55 °F  
Max Temperature 78 °F 66 °F 87 °F (1928)
Min Temperature 42 °F 45 °F 26 °F (1906)
Degree Days  
Heating Degree Days 5 10  
Month to date heating degree days 95  
Since 1 July heating degree days 185  
Cooling Degree Days 0 0  
Month to date cooling degree days 10  
Year to date cooling degree days 891  
Growing Degree Days 10 (Base 50)    
Moisture  
Dew Point 45 °F    
Average Humidity 64    
Maximum Humidity 100    
Minimum Humidity 29    
Precipitation  
Precipitation 0.02 in 0.10 in 0.92 in (1919)
Month to date precipitation 1.08  
Year to date precipitation 32.69  
Snow  
Snow 0.00 in 0.00 in - ()
Month to date snowfall 0.1  
Since 1 July snowfall 0.1  
Since 1 September snowfall 0.1  
Snow Depth -    
Sea Level Pressure  
Sea Level Pressure 30.08 in    
Wind  
Wind Speed 1 mph (East)    
Max Wind Speed 7 mph    
Max Gust Speed -    
Visibility 9 miles    
Events      
T = Trace of Precipitation, MM = Missing Value Source: NWS Daily Summary

Daily Weather History Graph

Daily Weather History Graph

Search for Another Location

Airport:

Trip Planner

Search our weather history database for the weather conditions in past years. The results will help you decide how hot, cold, wet, or windy it might be!

Date:

Astronomy

Oct. 11, 2013 Rise Set
Actual Time 7:44 AM EDT 7:04 PM EDT
Civil Twilight 7:17 AM EDT 7:31 PM EDT
Nautical Twilight 6:46 AM EDT 8:02 PM EDT
Astronomical Twilight 6:14 AM EDT 8:34 PM EDT
Moon 2:26 PM EDT (10/11) No Moon Set
Length of Visible Light 12h 13m
Length of Day
11h 19m
Waxing Crescent, 47% of the Moon is Illuminated
Oct 11
Waxing Crescent
Oct 11
First Quarter
Oct 18
Full
Oct 26
Last Quarter
Nov 3
New

Hourly Weather History & Observations

Time (EDT) Temp. Dew Point Humidity Pressure Visibility Wind Dir Wind Speed Gust Speed Precip Events Conditions
12:15 AM 53.6 °F 42.8 °F 67% 30.10 in 10.0 mi NE 4.6 mph - N/A   Clear
12:35 AM 53.6 °F 42.8 °F 67% 30.10 in 10.0 mi NE 3.5 mph - N/A   Clear
12:55 AM 51.8 °F 42.8 °F 71% 30.10 in 10.0 mi Calm Calm - N/A   Clear
1:15 AM 51.8 °F 42.8 °F 71% 30.09 in 10.0 mi NE 3.5 mph - N/A   Clear
1:35 AM 51.8 °F 42.8 °F 71% 30.09 in 10.0 mi Calm Calm - N/A   Clear
1:55 AM 50.0 °F 42.8 °F 76% 30.09 in 7.0 mi Calm Calm - N/A   Clear
2:15 AM 50.0 °F 44.6 °F 82% 30.09 in 10.0 mi Calm Calm - 0.01 in   Clear
2:55 AM 46.4 °F 44.6 °F 93% 30.08 in 10.0 mi Calm Calm - 0.01 in   Clear
3:15 AM 48.2 °F 44.6 °F 87% 30.08 in 10.0 mi Calm Calm - N/A   Clear
3:35 AM 46.4 °F 44.6 °F 93% 30.07 in 10.0 mi Calm Calm - N/A   Clear
3:55 AM 46.4 °F 44.6 °F 93% 30.07 in 10.0 mi Calm Calm - N/A   Clear
4:15 AM 44.6 °F 42.8 °F 93% 30.08 in 10.0 mi Calm Calm - N/A   Clear
4:35 AM 44.6 °F 44.6 °F 100% 30.08 in 10.0 mi Calm Calm - N/A   Clear
4:55 AM 44.6 °F 44.6 °F 100% 30.08 in 10.0 mi Calm Calm - N/A   Clear
5:15 AM 44.6 °F 44.6 °F 100% 30.08 in 10.0 mi Calm Calm - N/A   Clear
5:35 AM 44.6 °F 44.6 °F 100% 30.09 in 10.0 mi Calm Calm - N/A   Clear
5:55 AM 44.6 °F 44.6 °F 100% 30.09 in 10.0 mi Calm Calm - N/A   Clear
6:15 AM 44.6 °F 44.6 °F 100% 30.10 in 10.0 mi Calm Calm - N/A   Clear
6:35 AM 44.6 °F 42.8 °F 93% 30.10 in 7.0 mi Calm Calm - N/A   Clear
6:55 AM 44.6 °F 42.8 °F 93% 30.10 in 10.0 mi Calm Calm - N/A   Clear
7:15 AM 44.6 °F 42.8 °F 93% 30.11 in 10.0 mi Calm Calm - N/A   Clear
7:35 AM 42.8 °F 42.8 °F 100% 30.10 in 10.0 mi Calm Calm - N/A   Clear
7:55 AM 42.8 °F 42.8 °F 100% 30.10 in 3.0 mi Calm Calm - N/A   Clear
8:15 AM 44.6 °F 44.6 °F 100% 30.11 in 4.0 mi Calm Calm - N/A   Clear
8:35 AM 46.4 °F 44.6 °F 93% 30.11 in 10.0 mi Calm Calm - N/A   Clear
8:55 AM 50.0 °F 46.4 °F 87% 30.12 in 7.0 mi Calm Calm - N/A   Clear
9:15 AM 51.8 °F 46.4 °F 82% 30.12 in 5.0 mi Calm Calm - N/A   Haze
9:35 AM 55.4 °F 46.4 °F 72% 30.13 in 7.0 mi Calm Calm - N/A   Clear
9:55 AM 59.0 °F 46.4 °F 63% 30.14 in 2.5 mi Calm Calm - N/A   Haze
10:15 AM 62.6 °F 46.4 °F 55% 30.14 in 4.0 mi Calm Calm - N/A   Haze
10:35 AM 62.6 °F 44.6 °F 52% 30.13 in 10.0 mi Calm Calm - N/A   Clear
10:55 AM 64.4 °F 46.4 °F 52% 30.12 in 10.0 mi Calm Calm - N/A   Clear
11:15 AM 68.0 °F 44.6 °F 43% 30.12 in 10.0 mi Calm Calm - N/A   Clear
11:35 AM 69.8 °F 42.8 °F 38% 30.11 in 10.0 mi ENE 3.5 mph - N/A   Clear
11:55 AM 69.8 °F 41.0 °F 35% 30.11 in 10.0 mi ESE 4.6 mph - N/A   Clear
12:15 PM 71.6 °F 37.4 °F 29% 30.11 in 10.0 mi East 6.9 mph - N/A   Clear
12:35 PM 71.6 °F 39.2 °F 31% 30.10 in 10.0 mi SSE 3.5 mph - N/A   Clear
12:55 PM 73.4 °F 41.0 °F 31% 30.10 in 10.0 mi NE 3.5 mph - N/A   Clear
1:15 PM 73.4 °F 41.0 °F 31% 30.10 in 10.0 mi Calm Calm - N/A   Clear
1:35 PM 75.2 °F 41.0 °F 29% 30.09 in 10.0 mi East 4.6 mph - N/A   Clear
1:55 PM 77.0 °F 42.8 °F 29% 30.07 in 10.0 mi Calm Calm - N/A   Clear
2:15 PM 77.0 °F 42.8 °F 29% 30.07 in 10.0 mi SE 3.5 mph - N/A   Clear
2:35 PM 77.0 °F 42.8 °F 29% 30.06 in 10.0 mi Calm Calm - N/A   Clear
2:55 PM 77.0 °F 44.6 °F 32% 30.06 in 10.0 mi ESE 4.6 mph - N/A   Clear
3:15 PM 77.0 °F 44.6 °F 32% 30.06 in 3.0 mi East 3.5 mph - N/A   Haze
3:35 PM 77.0 °F 44.6 °F 32% 30.05 in 10.0 mi Calm Calm - N/A   Clear
3:55 PM 77.0 °F 44.6 °F 32% 30.05 in 10.0 mi Calm Calm - N/A   Clear
4:15 PM 77.0 °F 44.6 °F 32% 30.05 in 10.0 mi NE 3.5 mph - N/A   Clear
4:35 PM 78.8 °F 44.6 °F 30% 30.05 in 10.0 mi Calm Calm - N/A   Clear
4:55 PM 77.0 °F 44.6 °F 32% 30.05 in 10.0 mi Calm Calm - N/A   Clear
5:15 PM 77.0 °F 44.6 °F 32% 30.05 in 10.0 mi Calm Calm - N/A   Clear
5:35 PM 77.0 °F 44.6 °F 32% 30.05 in 10.0 mi Calm Calm - N/A   Clear
5:55 PM 77.0 °F 44.6 °F 32% 30.05 in 10.0 mi Calm Calm - N/A   Clear
6:15 PM 77.0 °F 46.4 °F 34% 30.04 in 10.0 mi Calm Calm - N/A   Clear
6:35 PM 73.4 °F 48.2 °F 41% 30.04 in 10.0 mi Calm Calm - 0.01 in   Clear
6:55 PM 71.6 °F 48.2 °F 43% 30.05 in 10.0 mi Calm Calm - 0.01 in   Clear
7:15 PM 69.8 °F 48.2 °F 46% 30.05 in 10.0 mi Calm Calm - N/A   Clear
7:35 PM 64.4 °F 50.0 °F 59% 30.05 in 10.0 mi Calm Calm - N/A   Clear
7:55 PM 62.6 °F 50.0 °F 63% 30.05 in 10.0 mi Calm Calm - N/A   Clear
8:15 PM 62.6 °F 50.0 °F 63% 30.05 in 10.0 mi Calm Calm - N/A   Clear
8:35 PM 62.6 °F 50.0 °F 63% 30.05 in 7.0 mi Calm Calm - N/A   Clear
8:55 PM 60.8 °F 50.0 °F 68% 30.06 in 7.0 mi Calm Calm - N/A   Clear
9:15 PM 60.8 °F 50.0 °F 68% 30.06 in 10.0 mi Calm Calm - N/A   Clear
9:35 PM 59.0 °F 50.0 °F 72% 30.06 in 10.0 mi Calm Calm - N/A   Clear
9:55 PM 59.0 °F 50.0 °F 72% 30.06 in 10.0 mi Calm Calm - N/A   Clear
10:15 PM 59.0 °F 50.0 °F 72% 30.06 in 10.0 mi Calm Calm - N/A   Clear
10:35 PM 57.2 °F 50.0 °F 77% 30.06 in 10.0 mi Calm Calm - N/A   Clear
10:55 PM 55.4 °F 50.0 °F 82% 30.06 in 10.0 mi Calm Calm - N/A   Clear
11:15 PM 53.6 °F 50.0 °F 88% 30.06 in 10.0 mi Calm Calm - N/A   Clear
11:35 PM 55.4 °F 50.0 °F 82% 30.06 in 10.0 mi Calm Calm - N/A   Clear
11:55 PM 53.6 °F 50.0 °F 88% 30.06 in 10.0 mi Calm Calm - N/A   Clear